Regional Weather Roundup
Issued by NWS

Home | Current Version | Previous Version | Graphics & Text | Print | Product List | Glossary On
Versions: 1 2 3 4 5 6 7 8 9 10 11 12 13 14 15 16 17 18 19 20 21 22 23 24 25 26 27 28 29 30 31 32 33 34 35 36 37 38 39 40 41 42 43 44 45 46 47 48 49 50
000
ASUS43 KTOP 220759
RWRKS

WEATHER ROUNDUP FOR KANSAS
NATIONAL WEATHER SERVICE GOODLAND KS
200 AM CST SUN JAN 22 2017

NOTE:  "FAIR" INDICATES FEW OR NO CLOUDS BELOW 12,000 FEET WITH NO
SIGNIFICANT WEATHER AND/OR OBSTRUCTIONS TO VISIBILITY.

KSZ001>006-013>018-027>032-041>047-220900-
NORTHWEST KANSAS

CITY           SKY/WX    TMP DP  RH WIND       PRES   REMARKS
GOODLAND       CLEAR     28  25  88 NW9       29.65R
HILL CITY      CLOUDY    33  30  88 N12       29.62R WCI  24
RUSSELL        PTCLDY    35  33  92 N10       29.56R WCI  27
$$

KSZ061>065-074>080-084>089-220900-
SOUTHWEST KANSAS

CITY           SKY/WX    TMP DP  RH WIND       PRES   REMARKS
DODGE CITY     CLOUDY    41  38  89 N16       29.56R
ELKHART          N/A     37  30  75 NW10        N/A  WCI  30
GARDEN CITY    CLOUDY    38  35  89 N13       29.59R WCI  30
GREAT BEND     CLOUDY    42  38  85 N13       29.56R
LIBERAL          N/A     41  36  81 N23       29.57R
$$

KSZ066>073-081>083-090>101-220900-
SOUTHEAST KANSAS

CITY           SKY/WX    TMP DP  RH WIND       PRES   REMARKS
CHANUTE        RAIN      49  46  90 NE9       29.45S FOG
COFFEYVILLE    LGT RAIN  50  46  86 NE13      29.40F
HUTCHINSON     CLOUDY    45  43  93 N9        29.49R
MEDICINE LODGE   N/A     44  42  93 N14       29.47R
NEWTON         LGT RAIN  44  43  96 NE10      29.49
PARSONS        LGT RAIN  50  45  83 NE9       29.43S
WICHITA INTL   LGT RAIN  47  44  90 NE14      29.46R
WICHITA JABRA  LGT RAIN  46  44  93 NE8       29.47R
WICHITA MCCONL LGT RAIN  46  43  87 NE17      29.46R FOG
WINFIELD       RAIN      49  44  83 NE8       29.43R
$$

KSZ007>012-019>026-033>040-048>060-102>105-220900-
NORTHEAST KANSAS

CITY           SKY/WX    TMP DP  RH WIND       PRES   REMARKS
CONCORDIA      CLEAR     35  34  96 NW7       29.57R
EMPORIA        CLOUDY    45  43  93 NE7       29.49S
LAWRENCE       CLOUDY    47  44  90 N7        29.52S
MANHATTAN      CLOUDY    46  40  79 N5        29.54R
OLATHE IND     CLOUDY    47  44  90 NE7       29.51S
OLATHE EXE     CLOUDY    46  45  96 NE8       29.51S
SALINA           N/A    N/A N/A N/A MISG        N/A
TOPEKA BILLARD CLOUDY    46  42  86 N6        29.52S
TOPEKA FORBES  CLOUDY    47  44  90 MISG      29.52S
$$



USA.gov is the U.S. government's official web portal to all federal, state and local government web resources and services.